Regional Weather Roundup
Issued by NWS Sioux Falls, SD

Home | Current Version | Previous Version | Text Only | Print | Product List | Glossary On
Versions: 1 2 3 4 5 6 7 8 9 10 11 12 13 14 15 16 17 18 19 20 21 22 23 24 25 26 27 28 29 30 31 32 33 34 35 36 37 38 39 40 41 42 43 44 45 46 47 48 49 50
000
ASUS43 KFSD 291510
RWRFSD

WEATHER ROUNDUP FOR SE SOUTH DAKOTA/SW MINNESOTA/NW IOWA
NATIONAL WEATHER SERVICE SIOUX FALLS SD
1000 AM CDT WED JUL 29 2015

NOTE: "FAIR" INDICATES FEW OR NO CLOUDS BELOW 12,000 FEET WITH NO
SIGNIFICANT WEATHER AND OR OBSTRUCTIONS TO VISIBILITY.


SDZ038>040-050-052>070-291600-
SOUTHEAST SOUTH DAKOTA

CITY           SKY/WX    TMP DP  RH WIND       PRES   REMARKS
BROOKINGS      SUNNY     70  52  52 W17G24    30.10S
CHAMBERLAIN    SUNNY     70  52  52 W5        30.17R
HURON          SUNNY     72  52  49 W12       30.09R
MADISON        FAIR      68  52  56 W14G24    30.12S
MITCHELL       SUNNY     75  52  44 W14G21    30.13R
SIOUX FALLS    MOSUNNY   71  55  56 VRB7      30.13R
WINNER         FAIR      79  43  27 W16       30.20R
YANKTON        SUNNY     73  55  53 SW13      30.16S
$$

MNZ071-072-080-081-089-090-097-098-291600-
SOUTHWEST MINNESOTA

CITY           SKY/WX    TMP DP  RH WIND       PRES   REMARKS
FAIRMONT       SUNNY     72  54  53 W12       30.07S
JACKSON        SUNNY     72  55  56 W13G20    30.10S
LUVERNE        SUNNY     70  55  60 W12       30.12F
MARSHALL       SUNNY     72  52  49 W16G23    30.05S
MONTEVIDEO     SUNNY     75  55  50 NW10G23   30.01R
PIPESTONE      SUNNY     68  55  64 W9        30.10F
REDWOOD FALLS  SUNNY     74  53  48 W15G26    30.01R
TRACY          SUNNY     72  55  56 W9G18     30.06S
WINDOM         SUNNY     72  54  53 SW13G18   30.08S
WORTHINGTON    SUNNY     70  54  56 W14       30.12S
$$

IAZ001>003-012>014-020>022-031-032-NEZ013-014-SDZ071-291600-
NORTHWEST IOWA

CITY           SKY/WX    TMP DP  RH WIND       PRES   REMARKS
CHEROKEE       SUNNY     72  62  70 W7        30.15R
DENISON        SUNNY     72  66  83 W6        30.15S
ESTHERVILLE    SUNNY     71  55  56 W13G18    30.09F
LE MARS        SUNNY     73  59  60 W8        30.16R
ORANGE CITY    SUNNY     72  57  60 W10G17    30.15R
SHELDON        SUNNY     72  57  60 W14G23    30.12S
SIOUX CITY     SUNNY     73  61  65 SW8       30.16R
SPENCER        SUNNY     74  55  51 W14G21    30.12S
STORM LAKE     SUNNY     73  59  60 W10       30.16R
$$

ABBREVIATIONS USED IN REMARKS
   TC - TEMPERATURE IN CELSIUS
  WCI - WIND CHILL INDEX
   HX - HEAT INDEX
  VSB - VISIBILITY




USA.gov is the U.S. government's official web portal to all federal, state and local government web resources and services.